Stations météo

Publicité
Biarritz, France (7602): Température de l'air & dewpoint: 21.06.2019 12:00:00 - 27.06.2019 12:00:00 (CEST)Biarritz, France (7602): Température de l'air 5cm: 21.06.2019 12:00:00 - 27.06.2019 12:00:00 (CEST)Biarritz, France (7602): Température de l'air -20cm & Température de l'air -100cm: 21.06.2019 12:00:00 - 27.06.2019 12:00:00 (CEST)Biarritz, France (7602): Vitesse du vent & gusts: 21.06.2019 12:00:00 - 27.06.2019 12:00:00 (CEST)Biarritz, France (7602): Direction du vent: 21.06.2019 12:00:00 - 27.06.2019 12:00:00 (CEST)Biarritz, France (7602): reduced air pressure: 21.06.2019 12:00:00 - 27.06.2019 12:00:00 (CEST)Biarritz, France (7602): visibility: 21.06.2019 12:00:00 - 27.06.2019 12:00:00 (CEST)Biarritz, France (7602): Ensoleillement: 21.06.2019 12:00:00 - 27.06.2019 12:00:00 (CEST)Biarritz, France (7602): Quantités de précipitations: 21.06.2019 12:00:00 - 27.06.2019 12:00:00 (CEST)
Date & Time tt [°C] td [°C] tt 5cm [°C] tt -20cm [°C] tt -100cm [°C] ff [km/h] ff [knt] fx [km/h] fx [knt] dd ppp [hPa] vv [km] sd [min] rr [mm]
27.06.2019 12:00:00 25,6 20,8 26,1 21,7 19,0 21 12 35 19 E 1017,4 10 58 0,0
27.06.2019 11:00:00 22,7 19,3 25,1 21,6 19,0 24 13 33 18 E 1017,8 9 60 0,0
27.06.2019 10:00:00 21,2 18,6 21,8 21,6 19,0 15 8 23 12 E 1018,4 9 47 0,0
27.06.2019 09:00:00 20,2 18,1 20,6 21,7 19,0 11 6 16 9 E 1018,6 13 52 0,0
27.06.2019 08:00:00 19,0 18,0 17,4 21,8 19,0 5 3 9 5 E 1018,4 11 60 0,0
27.06.2019 07:00:00 17,8 17,3 15,5 21,9 19,0 6 3 8 4 SE 1018,3 9 9 0,0
27.06.2019 06:00:00 18,2 17,4 17,0 22,1 19,0 3 2 18 10 SW 1018,5 11 0 0,0
27.06.2019 05:00:00 18,6 17,8 17,8 22,2 19,0 12 7 29 15 W 1018,5 12 0 0,0
27.06.2019 04:00:00 18,8 17,8 18,1 22,4 18,9 14 7 30 16 W 1018,2 14 0 0,0
27.06.2019 03:00:00 18,9 17,6 18,3 22,5 18,9 21 11 41 22 W 1018,4 15 0 0,0
27.06.2019 02:00:00 19,0 18,0 18,5 22,7 18,9 29 16 47 26 W 1018,4 12 0 0,0
27.06.2019 01:00:00 19,3 18,5 19,1 22,8 18,9 29 16 61 33 W 1017,8 8 0 0,0
27.06.2019 00:00:00 19,8 19,1 19,6 22,8 18,9 31 17 61 33 W 1017,1 6 0 0,0
26.06.2019 23:00:00 26,3 22,4 24,5 22,9 18,9 11 6 40 22 E 1014,9 17 0 0,0
26.06.2019 22:00:00 29,5 24,4 28,1 22,8 18,9 13 7 22 12 ENE 1012,8 23 26 0,0
26.06.2019 21:00:00 30,7 24,8 30,3 22,7 18,8 16 9 25 13 ENE 1012,5 15 54 0,0
26.06.2019 20:00:00 31,4 25,0 30,7 22,6 18,8 11 6 24 13 E 1012,4 17 42 0,0
26.06.2019 19:00:00 31,6 24,7 33,0 22,5 18,9 16 9 33 18 E 1012,2 17 60 0,0
26.06.2019 18:00:00 30,8 23,7 32,8 22,4 18,8 22 12 35 19 E 1012,4 16 60 0,0
26.06.2019 17:00:00 29,6 23,5 32,8 22,1 18,9 21 11 31 17 E 1012,8 14 60 0,0
26.06.2019 16:00:00 29,1 23,3 32,3 21,8 18,8 22 12 32 17 E 1013,6 13 60 0,0
26.06.2019 15:00:00 27,8 22,7 30,9 21,4 18,8 19 11 31 17 E 1014,3 13 60 0,0
26.06.2019 14:00:00 26,5 22,3 29,8 21,1 18,8 22 12 31 17 ENE 1014,8 13 60 0,0
26.06.2019 13:00:00 24,5 21,0 28,2 20,9 18,8 15 8 22 12 E 1015,7 13 60 0,0
26.06.2019 12:00:00 22,5 20,4 23,0 20,9 18,8 8 4 21 11 ESE 1016,3 11 9 0,0
26.06.2019 11:00:00 20,5 19,2 20,6 20,9 18,8 12 7 21 11 E 1016,1 12 0 0,0
26.06.2019 10:00:00 19,1 18,4 19,7 20,9 18,8 9 5 15 8 ESE 1016,5 7 0 0,0
26.06.2019 09:00:00 18,8 18,1 18,8 21,0 18,8 4 2 9 5 SSE 1016,5 7 0 0,0
26.06.2019 08:00:00 18,7 18,0 18,6 21,0 18,8 5 3 14 7 SW 1016,6 7 0 0,0
26.06.2019 07:00:00 18,7 17,9 18,3 21,1 18,8 6 3 17 9 WSW 1016,4 13 0 0,0
26.06.2019 06:00:00 18,7 17,9 18,4 21,2 18,7 10 5 19 10 W 1016,1 19 0 0,0
26.06.2019 05:00:00 18,7 17,9 18,4 21,3 18,7 8 5 20 11 WSW 1015,9 15 0 0,0
26.06.2019 04:00:00 18,6 17,9 18,4 21,5 18,7 10 6 25 14 W 1015,9 13 0 0,0
26.06.2019 03:00:00 18,6 17,8 18,4 21,6 18,7 16 9 27 15 W 1016,3 20 0 0,0
26.06.2019 02:00:00 18,7 18,0 18,3 21,7 18,7 12 6 26 14 W 1016,8 22 0 0,0
26.06.2019 01:00:00 18,9 18,2 18,8 21,8 18,7 17 9 24 13 W 1017,3 13 0 0,0
26.06.2019 00:00:00 19,1 18,3 18,9 21,9 18,7 17 9 29 16 W 1017,4 12 0 0,0
25.06.2019 23:00:00 19,4 18,6 19,0 22,0 18,7 16 9 26 14 W 1017,2 10 0 0,0
25.06.2019 22:00:00 19,6 18,8 19,3 22,1 18,7 15 8 23 13 W 1016,9 11 0 0,0
25.06.2019 21:00:00 19,9 18,6 19,8 22,1 18,7 13 7 23 12 W 1016,8 14 13 0,0
25.06.2019 20:00:00 21,0 19,1 21,5 22,1 18,7 12 6 23 12 W 1016,7 15 14 0,0
25.06.2019 19:00:00 21,9 19,3 22,8 22,1 18,7 13 7 23 13 W 1016,6 19 26 0,0
25.06.2019 18:00:00 21,2 18,9 22,4 21,9 18,7 17 9 27 15 WNW 1016,8 11 10 0,0
25.06.2019 17:00:00 21,7 19,3 23,9 21,7 18,7 17 9 28 15 WNW 1016,6 18 29 0,0
25.06.2019 16:00:00 22,2 19,6 26,1 21,3 18,7 18 10 29 16 NW 1016,6 20 55 0,0
25.06.2019 15:00:00 22,6 19,2 28,0 21,0 18,7 20 11 28 15 NNW 1016,7 20 60 0,0
25.06.2019 14:00:00 23,3 19,2 28,0 20,6 18,7 14 8 23 12 NNW 1016,8 19 60 0,0
25.06.2019 13:00:00 22,5 18,1 28,3 20,4 18,7 16 8 24 13 NNW 1017,1 20 60 0,0
25.06.2019 12:00:00 23,1 18,4 23,2 20,2 18,6 9 5 19 11 ENE 1017,0 15 28 0,0
25.06.2019 11:00:00 22,4 18,0 25,2 20,1 18,6 6 4 15 8 ENE 1017,0 20 38 0,0
25.06.2019 10:00:00 21,4 17,8 21,2 20,0 18,6 4 2 10 5 ENE 1017,3 20 17 0,0
25.06.2019 09:00:00 18,9 17,6 18,2 20,1 18,6 4 2 8 4 SSE 1017,1 16 0 0,0
25.06.2019 08:00:00 17,7 17,2 17,1 20,1 18,6 5 3 10 6 ENE 1017,1 12 0 0,0
25.06.2019 07:00:00 17,4 17,1 16,4 20,2 18,6 8 5 11 6 ENE 1016,9 10 0 0,0
25.06.2019 06:00:00 17,3 17,0 16,4 20,3 18,6 5 3 10 5 ESE 1016,2 8 0 0,0
25.06.2019 05:00:00 17,9 17,3 16,6 20,4 18,6 3 2 8 4 SSE 1016,1 11 0 0,0
25.06.2019 04:00:00 18,0 17,4 17,1 20,5 18,6 7 4 10 6 W 1016,2 13 0 0,0
25.06.2019 03:00:00 17,9 17,1 17,1 20,6 18,6 4 2 12 6 SSW 1016,4 16 0 0,0
25.06.2019 02:00:00 18,1 17,1 17,4 20,7 18,6 6 4 25 13 W 1016,6 17 0 0,0
25.06.2019 01:00:00 18,4 17,1 17,8 20,8 18,6 16 9 35 19 W 1016,9 19 0 0,0
25.06.2019 00:00:00 18,4 17,1 17,7 20,9 18,6 26 14 35 19 W 1016,8 18 0 0,0
24.06.2019 23:00:00 18,4 17,1 17,7 21,0 18,6 19 11 34 18 W 1016,3 12 0 0,0
24.06.2019 22:00:00 18,4 17,2 18,2 21,1 18,6 22 12 44 24 W 1015,8 13 0 0,0
24.06.2019 21:00:00 18,6 17,4 18,6 21,2 18,6 27 15 44 24 W 1015,0 12 0 0,0
24.06.2019 20:00:00 19,1 17,8 19,2 21,1 18,6 24 13 48 26 W 1014,2 13 0 0,0
24.06.2019 19:00:00 19,7 18,2 20,1 21,0 18,6 31 17 45 25 W 1013,8 13 7 0,0
24.06.2019 18:00:00 25,5 19,2 25,4 20,9 18,6 6 3 28 15 ESE 1012,6 16 14 0,0
24.06.2019 17:00:00 25,9 19,5 28,2 20,8 18,5 14 8 21 11 ENE 1012,4 31 29 0,0
24.06.2019 16:00:00 24,8 18,5 23,7 20,6 18,5 4 2 34 18 E 1012,6 20 4 0,0
24.06.2019 15:00:00 23,3 18,6 24,3 20,5 18,5 12 6 26 14 SE 1013,1 22 0 0,0
24.06.2019 14:00:00 22,8 18,8 24,0 20,4 18,5 12 7 23 12 ESE 1013,1 28 6 0,0
24.06.2019 13:00:00 20,9 17,5 22,2 20,2 18,5 4 2 23 12 NNW 1013,4 20 0 0,0
24.06.2019 12:00:00 21,7 17,9 22,9 20,1 18,5 6 3 14 8 SSE 1012,9 27 4 0,0
24.06.2019 11:00:00 20,3 17,1 21,0 20,1 18,5 4 2 10 5 WNW 1013,3 20 4 0,0
24.06.2019 10:00:00 19,2 16,8 19,2 20,2 18,5 4 2 16 9 W 1013,5 20 0 0,0
24.06.2019 09:00:00 18,7 17,2 18,3 20,2 18,4 7 4 21 12 WSW 1013,2 21 0 0,0
24.06.2019 08:00:00 18,2 17,2 18,0 20,3 18,5 12 7 30 16 WSW 1013,2 19 0 0,0
24.06.2019 07:00:00 18,2 17,4 17,9 20,4 18,4 19 11 38 21 W 1013,4 16 0 0,0
24.06.2019 06:00:00 18,3 17,1 17,8 20,5 18,4 24 13 46 25 W 1013,2 19 0 0,0
24.06.2019 05:00:00 18,3 17,5 17,4 20,6 18,4 19 11 34 18 W 1012,8 19 0 0,0
24.06.2019 04:00:00 18,1 17,5 17,0 20,7 18,4 12 6 23 12 W 1012,6 18 0 0,0
24.06.2019 03:00:00 17,9 17,4 16,8 20,8 18,4 8 4 11 6 W 1012,7 15 0 0,0
24.06.2019 02:00:00 18,1 17,5 17,2 20,9 18,4 5 3 14 7 WSW 1013,0 17 0 0,0
24.06.2019 01:00:00 18,4 17,7 17,8 21,0 18,4 9 5 18 10 W 1013,9 16 0 0,0
24.06.2019 00:00:00 18,8 17,8 17,9 21,1 18,4 7 4 18 10 WSW 1014,0 19 0 0,0
23.06.2019 23:00:00 18,8 17,6 18,3 21,2 18,4 11 6 22 12 WNW 1014,0 19 0 0,0
23.06.2019 22:00:00 18,9 17,9 18,5 21,3 18,4 16 9 23 13 W 1013,7 18 0 0,0
23.06.2019 21:00:00 19,3 17,8 18,9 21,3 18,4 16 9 23 12 W 1013,3 20 12 0,0
23.06.2019 20:00:00 21,2 17,6 21,0 21,3 18,4 10 5 20 11 W 1012,8 29 41 0,0
23.06.2019 19:00:00 20,0 17,4 20,8 21,3 18,4 12 6 22 12 W 1013,1 24 0 0,0
23.06.2019 18:00:00 20,7 17,5 22,3 21,1 18,4 16 9 26 14 WNW 1013,1 25 26 0,0
23.06.2019 17:00:00 22,1 17,9 24,9 20,9 18,4 16 8 25 14 WNW 1013,1 41 41 0,0
23.06.2019 16:00:00 22,7 18,0 26,0 20,6 18,3 16 8 24 13 WNW 1012,7 31 34 0,0
23.06.2019 15:00:00 22,9 17,4 26,6 20,3 18,4 12 6 27 15 NNW 1012,1 41 45 0,0
23.06.2019 14:00:00 22,6 17,1 26,1 20,0 18,3 12 7 25 13 NNW 1012,1 28 38 0,0
23.06.2019 13:00:00 23,1 16,4 25,7 19,8 18,4 9 5 21 12 NW 1012,0 19 53 0,0
23.06.2019 12:00:00 21,2 16,4 22,6 19,6 18,4 14 7 34 19 WNW 1012,2 17 37 0,0
23.06.2019 11:00:00 21,5 17,1 21,3 19,6 18,3 23 12 42 23 W 1012,2 19 45 0,0
23.06.2019 10:00:00 21,1 17,1 22,1 19,5 18,4 27 15 51 28 WNW 1011,9 20 37 0,0
23.06.2019 09:00:00 23,9 17,2 19,3 19,5 18,3 4 2 10 6 ESE 1009,8 58 43 0,0
23.06.2019 08:00:00 18,4 16,2 17,0 19,6 18,3 5 3 16 9 ENE 1009,8 51 0 0,0
23.06.2019 07:00:00 17,5 15,7 16,1 19,7 18,3 6 3 19 10 ESE 1009,6 53 0 0,0
23.06.2019 06:00:00 17,1 15,8 16,1 19,8 18,3 9 5 15 8 E 1009,4 43 0 0,0
23.06.2019 05:00:00 17,9 15,9 16,4 19,9 18,4 13 7 16 8 E 1009,5 53 0 0,0
23.06.2019 04:00:00 18,0 15,6 16,8 20,0 18,3 9 5 16 8 E 1009,8 57 0 0,0
23.06.2019 03:00:00 18,5 15,4 17,1 20,1 18,3 13 7 21 11 E 1010,4 60 0 0,0
23.06.2019 02:00:00 19,3 15,2 18,2 20,2 18,3 15 8 22 12 E 1011,1 60 0 0,0
23.06.2019 01:00:00 20,5 15,1 19,2 20,3 18,3 16 9 28 15 E 1011,4 60 0 0,0
23.06.2019 00:00:00 21,0 15,5 19,7 20,4 18,4 19 10 27 15 E 1011,7 60 0 0,0
22.06.2019 23:00:00 21,2 15,9 20,1 20,5 18,4 18 10 29 16 E 1012,0 60 0 0,0
22.06.2019 22:00:00 22,6 15,7 21,4 20,5 18,3 17 9 32 17 E 1011,7 60 25 0,0
22.06.2019 21:00:00 24,0 16,5 23,3 20,5 18,4 20 11 34 18 E 1011,9 34 43 0,0
22.06.2019 20:00:00 24,6 16,8 24,3 20,4 18,4 22 12 37 20 E 1012,0 44 38 0,0
22.06.2019 19:00:00 25,9 16,4 25,6 20,4 18,4 21 12 38 21 E 1012,3 33 56 0,0
22.06.2019 18:00:00 26,1 16,9 26,0 20,2 18,4 20 11 34 18 E 1012,6 31 30 0,0
22.06.2019 17:00:00 25,5 16,9 26,7 19,9 18,4 18 10 31 17 E 1013,2 22 39 0,0
22.06.2019 16:00:00 25,2 17,4 27,4 19,6 18,4 19 11 35 19 E 1013,9 22 54 0,0
22.06.2019 15:00:00 24,4 16,9 26,8 19,2 18,4 21 12 35 19 E 1014,7 23 60 0,0
22.06.2019 14:00:00 23,1 15,7 26,6 18,9 18,4 20 11 36 19 E 1015,4 24 60 0,0
22.06.2019 13:00:00 22,1 16,1 22,0 18,7 18,4 17 9 34 18 E 1016,3 26 41 0,0
22.06.2019 12:00:00 20,9 15,2 22,5 18,5 18,4 22 12 44 24 E 1016,8 19 58 0,0
22.06.2019 11:00:00 19,7 14,5 20,9 18,4 18,4 18 10 32 17 E 1017,4 19 60 0,0
22.06.2019 10:00:00 17,7 14,4 16,5 18,3 18,4 16 9 27 15 E 1017,9 20 60 0,0
22.06.2019 09:00:00 15,8 13,6 13,0 18,4 18,4 8 4 14 8 E 1018,3 21 47 0,0
22.06.2019 08:00:00 13,2 12,3 11,3 18,5 18,4 7 4 14 7 SE 1018,5 28 56 0,0
22.06.2019 07:00:00 11,5 11,3 9,0 18,7 18,4 9 5 15 8 SSE 1018,8 16 10 0,2
22.06.2019 06:00:00 10,6 10,1 8,2 18,8 18,4 9 5 12 6 SE 1019,0 14 0 0,0
22.06.2019 05:00:00 11,5 11,0 8,9 19,0 18,4 5 3 11 6 SSE 1019,3 15 0 0,0
22.06.2019 04:00:00 11,7 11,2 8,7 19,1 18,4 7 4 10 5 SSE 1019,8 16 0 0,0
22.06.2019 03:00:00 12,5 12,0 9,3 19,2 18,4 5 3 12 6 SSW 1020,2 14 0 0,0
22.06.2019 02:00:00 12,9 12,0 10,4 19,4 18,4 6 3 9 5 SSE 1020,8 16 0 0,0
22.06.2019 01:00:00 13,5 12,1 11,6 19,5 18,4 6 3 8 5 S 1021,2 25 0 0,0
22.06.2019 00:00:00 14,6 13,1 11,9 19,6 18,4 5 3 8 4 S 1021,7 30 0 0,0
21.06.2019 23:00:00 15,6 12,3 12,6 19,7 18,4 3 2 11 6 WNW 1021,7 45 0 0,0
21.06.2019 22:00:00 16,0 12,0 13,7 19,8 18,5 6 4 16 9 WNW 1021,2 52 2 0,0
21.06.2019 21:00:00 17,7 12,4 17,9 19,7 18,4 9 5 20 11 NW 1020,9 44 49 0,0
21.06.2019 20:00:00 18,5 13,1 19,6 19,7 18,4 11 6 29 16 NW 1020,8 38 50 0,0
21.06.2019 19:00:00 18,0 12,9 18,7 19,7 18,5 14 8 29 16 NW 1020,7 37 45 0,0
21.06.2019 18:00:00 18,9 13,5 19,3 19,6 18,5 16 9 28 15 WNW 1020,6 54 20 0,0
21.06.2019 17:00:00 17,6 12,5 19,3 19,4 18,4 14 7 41 22 NW 1020,6 42 36 0,0
21.06.2019 16:00:00 17,7 11,5 19,8 19,2 18,4 16 9 29 16 NW 1020,9 41 19 0,0
21.06.2019 15:00:00 18,0 11,8 21,3 18,9 18,4 20 11 32 17 WNW 1021,0 33 49 0,0
21.06.2019 14:00:00 17,9 14,0 20,7 18,8 18,5 16 9 30 16 W 1021,0 35 49 0,0
21.06.2019 13:00:00 16,3 14,1 16,3 18,8 18,5 14 8 23 12 W 1021,1 31 9 0,0
21.06.2019 12:00:00 14,9 13,6 14,9 18,8 18,5 8 4 18 10 W 1020,9 37 0 0,0

tt = Température de l'air
td = dewpoint
tt 5cm = Température de l'air 5cm
tt -20cm = Température de l'air -20cm
tt -100cm = Température de l'air -100cm
ff = Vitesse du vent
fx = gusts
dd = Direction du vent
ppp = reduced air pressure
vv = visibility
sd = Ensoleillement
rr = Quantités de précipitations

stations d'obs. à proximité